Weather History for Hot Springs, VA

Change the Weather History Date:

Saturday, April 26, 2014

  Actual Average Record
Temperature  
Mean Temperature 53 °F -  
Max Temperature 64 °F 58 °F 71 °F (1998)
Min Temperature 42 °F 41 °F 32 °F (1997)
Degree Days  
Heating Degree Days 12    
Growing Degree Days 3 (Base 50)    
Moisture  
Dew Point 36 °F    
Average Humidity 53    
Maximum Humidity 76    
Minimum Humidity 34    
Precipitation  
Precipitation 0.00 in - - ()
Sea Level Pressure  
Sea Level Pressure 29.97 in    
Wind  
Wind Speed 19 mph (WNW)    
Max Wind Speed 24 mph    
Max Gust Speed 36 mph    
Visibility 10 miles    
Events      
Averages and records for this station are not official NWS values.
T = Trace of Precipitation, MM = Missing Value Source: NWS Daily Summary

Daily Weather History Graph

Daily Weather History Graph

Search for Another Location

Airport:

Trip Planner

Search our weather history database for the weather conditions in past years. The results will help you decide how hot, cold, wet, or windy it might be!

Date:

Astronomy

Apr. 26, 2014 Rise Set
Actual Time 6:29 AM EDT 8:05 PM EDT
Civil Twilight 6:01 AM EDT 8:33 PM EDT
Nautical Twilight 5:27 AM EDT 9:07 PM EDT
Astronomical Twilight 4:52 AM EDT 9:42 PM EDT
Moon 4:49 AM EDT (4/26) 5:34 PM EDT (4/26)
Length of Visible Light 14h 32m
Length of Day
13h 36m
Waning Crescent, 8% of the Moon is Illuminated
Apr 26
Waning Crescent
Apr 29
New
May 6
First Quarter
May 14
Full
May 21
Last Quarter

Hourly Weather History & Observations

Time (EDT) Temp. Windchill Dew Point Humidity Pressure Visibility Wind Dir Wind Speed Gust Speed Precip Events Conditions
12:15 AM 44.6 °F 36.6 °F 33.8 °F 66% 29.92 in 10.0 mi WNW 19.6 mph 28.8 mph N/A   Clear
12:35 AM 42.8 °F 33.8 °F 33.8 °F 70% 29.92 in 10.0 mi WNW 21.9 mph 34.5 mph N/A   Clear
12:55 AM 42.8 °F 33.8 °F 33.8 °F 70% 29.93 in 10.0 mi WNW 21.9 mph 34.5 mph N/A   Clear
1:15 AM 42.8 °F 33.3 °F 33.8 °F 70% 29.93 in 10.0 mi WNW 24.2 mph 35.7 mph N/A   Clear
1:35 AM 42.8 °F 34.3 °F 35.6 °F 76% 29.93 in 10.0 mi WNW 19.6 mph 27.6 mph N/A   Clear
1:55 AM 42.8 °F 34.3 °F 35.6 °F 76% 29.93 in 10.0 mi WNW 19.6 mph 29.9 mph N/A   Clear
2:15 AM 42.8 °F 34.0 °F 35.6 °F 76% 29.93 in 10.0 mi WNW 20.7 mph 29.9 mph N/A   Clear
2:35 AM 42.8 °F 33.8 °F 33.8 °F 70% 29.93 in 10.0 mi NW 21.9 mph 25.3 mph N/A   Clear
2:55 AM 42.8 °F 35.4 °F 33.8 °F 70% 29.92 in 10.0 mi WNW 15.0 mph 25.3 mph N/A   Clear
3:15 AM 42.8 °F 35.1 °F 33.8 °F 70% 29.92 in 10.0 mi WNW 16.1 mph 26.5 mph N/A   Clear
3:35 AM 42.8 °F 36.2 °F 33.8 °F 70% 29.91 in 10.0 mi WNW 12.7 mph 21.9 mph N/A   Clear
3:55 AM 42.8 °F 35.4 °F 32.0 °F 66% 29.91 in 10.0 mi WNW 15.0 mph 21.9 mph N/A   Clear
4:15 AM 42.8 °F 35.1 °F 32.0 °F 66% 29.91 in 10.0 mi WNW 16.1 mph 23.0 mph N/A   Clear
4:35 AM 42.8 °F 35.4 °F 33.8 °F 70% 29.91 in 10.0 mi WNW 15.0 mph 23.0 mph N/A   Clear
4:55 AM 42.8 °F 35.1 °F 33.8 °F 70% 29.91 in 10.0 mi WNW 16.1 mph 24.2 mph N/A   Clear
5:15 AM 42.8 °F 35.1 °F 33.8 °F 70% 29.91 in 10.0 mi WNW 16.1 mph 24.2 mph N/A   Clear
5:35 AM 42.8 °F 34.8 °F 33.8 °F 70% 29.91 in 10.0 mi WNW 17.3 mph 24.2 mph N/A   Clear
5:55 AM 42.8 °F 34.3 °F 33.8 °F 70% 29.92 in 10.0 mi West 19.6 mph 25.3 mph N/A   Unknown
6:15 AM 42.8 °F 34.3 °F 33.8 °F 70% 29.92 in 10.0 mi West 19.6 mph 26.5 mph N/A   Clear
6:35 AM 42.8 °F 34.5 °F 33.8 °F 70% 29.93 in 10.0 mi West 18.4 mph - N/A   Clear
6:55 AM 42.8 °F 34.8 °F 35.6 °F 76% 29.95 in 10.0 mi West 17.3 mph 25.3 mph N/A   Clear
7:15 AM 42.8 °F 34.3 °F 35.6 °F 76% 29.95 in 10.0 mi West 19.6 mph 25.3 mph N/A   Clear
7:55 AM 44.6 °F 36.4 °F 35.6 °F 71% 29.98 in 10.0 mi West 20.7 mph 26.5 mph N/A   Clear
8:15 AM 46.4 °F 38.5 °F 35.6 °F 66% 29.99 in 10.0 mi West 21.9 mph 29.9 mph N/A   Clear
8:35 AM 46.4 °F 38.7 °F 37.4 °F 71% 29.99 in 10.0 mi WNW 20.7 mph 26.5 mph N/A   Clear
8:55 AM 46.4 °F 39.2 °F 37.4 °F 71% 29.98 in 10.0 mi West 18.4 mph 27.6 mph N/A   Clear
9:15 AM 48.2 °F - 37.4 °F 66% 29.99 in 10.0 mi West 18.4 mph 24.2 mph N/A   Clear
9:35 AM 48.2 °F - 39.2 °F 71% 29.99 in 10.0 mi West 18.4 mph - N/A   Clear
9:50 AM 51.8 °F - 39.2 °F 62% 29.99 in 10.0 mi West 19.6 mph 25.3 mph N/A   Clear
10:15 AM 51.8 °F - 39.2 °F 62% 29.99 in 10.0 mi WNW 16.1 mph 25.3 mph N/A   Clear
10:35 AM 53.6 °F - 39.2 °F 58% 30.00 in 10.0 mi West 15.0 mph 26.5 mph N/A   Clear
10:55 AM 55.4 °F - 41.0 °F 58% 30.00 in 10.0 mi West 16.1 mph 26.5 mph N/A   Clear
11:15 AM 55.4 °F - 41.0 °F 58% 30.00 in 10.0 mi West 16.1 mph 23.0 mph N/A   Scattered Clouds
11:30 AM 57.2 °F - 39.2 °F 51% 30.00 in 10.0 mi West 17.3 mph 24.2 mph N/A   Scattered Clouds
11:55 AM 60.8 °F - 39.2 °F 45% 29.99 in 10.0 mi NW 17.3 mph 32.2 mph N/A   Scattered Clouds
12:15 PM 59.0 °F - 37.4 °F 45% 29.98 in 10.0 mi WNW 20.7 mph 33.4 mph N/A   Scattered Clouds
12:35 PM 60.8 °F - 39.2 °F 45% 29.98 in 10.0 mi WNW 16.1 mph 31.1 mph N/A   Scattered Clouds
12:55 PM 62.6 °F - 39.2 °F 42% 29.99 in 10.0 mi WNW 23.0 mph 28.8 mph N/A   Scattered Clouds
1:15 PM 60.8 °F - 37.4 °F 42% 29.98 in 10.0 mi WNW 17.3 mph 28.8 mph N/A   Scattered Clouds
1:35 PM 62.6 °F - 37.4 °F 39% 29.98 in 10.0 mi West 20.7 mph 27.6 mph N/A   Scattered Clouds
1:55 PM 62.6 °F - 39.2 °F 42% 29.98 in 10.0 mi West 20.7 mph 32.2 mph N/A   Scattered Clouds
2:15 PM 62.6 °F - 37.4 °F 39% 29.97 in 10.0 mi WNW 20.7 mph 31.1 mph N/A   Clear
2:35 PM 62.6 °F - 37.4 °F 39% 29.98 in 10.0 mi WNW 17.3 mph 28.8 mph N/A   Scattered Clouds
2:55 PM 64.4 °F - 37.4 °F 37% 29.98 in 10.0 mi WNW 16.1 mph - N/A   Scattered Clouds
3:15 PM 62.6 °F - 37.4 °F 39% 29.99 in 10.0 mi West 16.1 mph 27.6 mph N/A   Scattered Clouds
3:35 PM 64.4 °F - 37.4 °F 37% 29.97 in 10.0 mi West 20.7 mph 27.6 mph N/A   Scattered Clouds
3:55 PM 62.6 °F - 37.4 °F 39% 29.98 in 10.0 mi WNW 18.4 mph 34.5 mph N/A   Scattered Clouds
4:15 PM 64.4 °F - 37.4 °F 37% 29.98 in 10.0 mi WNW 13.8 mph 24.2 mph N/A   Mostly Cloudy
4:35 PM 64.4 °F - 37.4 °F 37% 29.98 in 10.0 mi West 18.4 mph 31.1 mph N/A   Mostly Cloudy
4:55 PM 64.4 °F - 37.4 °F 37% 29.97 in 10.0 mi West 19.6 mph 32.2 mph N/A   Scattered Clouds
5:15 PM 64.4 °F - 37.4 °F 37% 29.97 in 10.0 mi West 24.2 mph 31.1 mph N/A   Scattered Clouds
5:35 PM 64.4 °F - 35.6 °F 34% 29.98 in 10.0 mi West 20.7 mph 31.1 mph N/A   Mostly Cloudy
5:55 PM 62.6 °F - 37.4 °F 39% 29.98 in 10.0 mi West 18.4 mph 34.5 mph N/A   Mostly Cloudy
6:15 PM 64.4 °F - 35.6 °F 34% 29.98 in 10.0 mi West 20.7 mph 31.1 mph N/A   Mostly Cloudy
6:35 PM 64.4 °F - 35.6 °F 34% 29.98 in 10.0 mi West 19.6 mph 32.2 mph N/A   Mostly Cloudy
6:55 PM 64.4 °F - 35.6 °F 34% 29.98 in 10.0 mi West 19.6 mph 31.1 mph N/A   Scattered Clouds
7:15 PM 62.6 °F - 35.6 °F 37% 29.98 in 10.0 mi West 18.4 mph 27.6 mph N/A   Clear
7:35 PM 62.6 °F - 35.6 °F 37% 29.99 in 10.0 mi West 13.8 mph 23.0 mph N/A   Scattered Clouds
7:55 PM 62.6 °F - 35.6 °F 37% 29.99 in 10.0 mi West 16.1 mph 26.5 mph N/A   Scattered Clouds
8:15 PM 60.8 °F - 35.6 °F 39% 29.99 in 10.0 mi WNW 16.1 mph 25.3 mph N/A   Scattered Clouds
8:55 PM 60.8 °F - 35.6 °F 39% 30.00 in 10.0 mi West 16.1 mph 25.3 mph N/A   Clear
9:15 PM 60.8 °F - 33.8 °F 36% 30.00 in 10.0 mi West 18.4 mph 29.9 mph N/A   Clear
9:35 PM 60.8 °F - 33.8 °F 36% 30.00 in 10.0 mi West 16.1 mph 23.0 mph N/A   Clear
9:55 PM 60.8 °F - 33.8 °F 36% 30.01 in 10.0 mi West 16.1 mph 23.0 mph N/A   Clear
10:15 PM 59.0 °F - 33.8 °F 39% 30.01 in 10.0 mi West 15.0 mph 24.2 mph N/A   Clear
10:35 PM 59.0 °F - 35.6 °F 42% 30.01 in 10.0 mi West 13.8 mph 21.9 mph N/A   Clear
10:55 PM 59.0 °F - 35.6 °F 42% 30.01 in 10.0 mi West 19.6 mph 27.6 mph N/A   Clear
11:15 PM 57.2 °F - 35.6 °F 44% 30.01 in 10.0 mi West 17.3 mph 24.2 mph N/A   Clear
11:35 PM 57.2 °F - 35.6 °F 44% 30.01 in 10.0 mi West 16.1 mph 26.5 mph N/A   Clear
11:55 PM 57.2 °F - 35.6 °F 44% 30.01 in 10.0 mi West 17.3 mph 25.3 mph N/A   Clear